Clearfield, PA

9:30 AM EST on February 13, 2016 (GMT -0500)
Clearfield-Lawrence

Weather History for KFIG - December, 2012

Change the Weather History Date:

Saturday, December 8, 2012

  Actual Average (KDUJ) Record (KDUJ)
Temperature  
Mean Temperature 44 °F 30 °F  
Max Temperature 52 °F 37 °F 64 °F (1966)
Min Temperature 35 °F 24 °F 4 °F (2005)
Degree Days  
Heating Degree Days 22 35  
Month to date heating degree days 267  
Since 1 July heating degree days 1784  
Cooling Degree Days 0 0  
Month to date cooling degree days 0  
Year to date cooling degree days 362  
Moisture  
Dew Point 39 °F    
Average Humidity 94    
Maximum Humidity 100    
Minimum Humidity 77    
Precipitation  
Precipitation 0.18 in 0.11 in 0.90 in (1978)
Month to date precipitation 0.85  
Sea Level Pressure  
Sea Level Pressure 29.89 in    
Wind  
Wind Speed 6 mph (North)    
Max Wind Speed 10 mph    
Max Gust Speed -    
Visibility 5 miles    
Events Fog , Rain    
T = Trace of Precipitation, MM = Missing Value Source: NWS Daily Summary

Daily Weather History Graph

Daily Weather History Graph

Search for Another Location

Airport or City:

Trip Planner

Search our weather history database for the weather conditions in past years. The results will help you decide how hot, cold, wet, or windy it might be!

Date:

Astronomy

Dec. 08, 2012 Rise Set
Actual Time 7:26 AM EST 4:45 PM EST
Civil Twilight 6:55 AM EST 5:16 PM EST
Nautical Twilight 6:21 AM EST 5:50 PM EST
Astronomical Twilight 5:47 AM EST 6:23 PM EST
Moon 1:46 AM EST (12/8) 1:15 PM EST (12/8)
Length of Visible Light 10h 20m
Length of Day
9h 18m
Waning Crescent, 28% of the Moon is Illuminated
Dec 8
Waning Crescent
Dec 13
New
Dec 20
First Quarter
Dec 28
Full
Jan 4
Last Quarter

Hourly Weather History & Observations

Time (EST) Temp. Windchill Dew Point Humidity Pressure Visibility Wind Dir Wind Speed Gust Speed Precip Events Conditions
12:07 AM 35.6 °F 28.0 °F 35.6 °F 100% 29.90 in 3.0 mi NE 10.4 mph - 0.01 in Rain Light Rain
12:23 AM 35.6 °F 31.7 °F 35.6 °F 100% 29.90 in 3.0 mi NNE 4.6 mph - 0.01 in Rain Light Rain
12:27 AM 35.6 °F 30.7 °F 35.6 °F 100% 29.90 in 1.8 mi NNE 5.8 mph - 0.01 in Rain Light Rain
12:44 AM 35.6 °F 29.9 °F 35.6 °F 100% 29.90 in 0.8 mi NNE 6.9 mph - 0.02 in Rain Light Rain
12:52 AM 35.6 °F 29.9 °F 35.6 °F 100% 29.90 in 2.0 mi North 6.9 mph - 0.03 in Rain Rain
12:54 AM 36.0 °F 29.6 °F 35.1 °F 97% 29.94 in 2.5 mi NNE 8.1 mph - 0.03 in Rain Rain
1:05 AM 35.6 °F 30.7 °F 35.6 °F 100% 29.90 in 3.0 mi North 5.8 mph - 0.01 in Rain Light Rain
1:29 AM 35.6 °F 30.7 °F 35.6 °F 100% 29.89 in 4.0 mi NNE 5.8 mph - 0.02 in Rain Light Rain
1:54 AM 36.0 °F 31.1 °F 36.0 °F 100% 29.92 in 6.0 mi ENE 5.8 mph - 0.03 in Rain Light Rain
2:24 AM 35.6 °F 30.7 °F 35.6 °F 100% 29.88 in 2.5 mi NNE 5.8 mph - 0.01 in Rain Light Rain
2:52 AM 35.6 °F 30.7 °F 35.6 °F 100% 29.87 in 3.0 mi NE 5.8 mph - 0.04 in Rain Rain
2:54 AM 36.0 °F 30.3 °F 36.0 °F 100% 29.91 in 3.0 mi NE 6.9 mph - 0.05 in Rain Rain
3:08 AM 35.6 °F 31.7 °F 35.6 °F 100% 29.87 in 6.0 mi NNE 4.6 mph - 0.01 in Rain Light Rain
3:19 AM 35.6 °F 31.7 °F 35.6 °F 100% 29.87 in 1.5 mi NNE 4.6 mph - 0.01 in Rain Light Rain
3:30 AM 35.6 °F 31.7 °F 35.6 °F 100% 29.87 in 0.8 mi North 4.6 mph - 0.01 in Rain Light Rain
3:35 AM 35.6 °F 30.7 °F 35.6 °F 100% 29.87 in 1.0 mi NNE 5.8 mph - 0.01 in Rain Light Rain
3:46 AM 35.6 °F 31.7 °F 35.6 °F 100% 29.86 in 3.0 mi NE 4.6 mph - 0.02 in Rain Rain
3:54 AM 36.0 °F 30.3 °F 36.0 °F 100% 29.89 in 4.0 mi ENE 6.9 mph - 0.03 in Rain Rain
4:09 AM 35.6 °F 31.7 °F 35.6 °F 100% 29.86 in 2.5 mi NNE 4.6 mph - 0.02 in Rain Rain
4:14 AM 35.6 °F 30.7 °F 35.6 °F 100% 29.85 in 0.8 mi NNE 5.8 mph - 0.03 in Rain Light Rain
4:33 AM 35.6 °F 30.7 °F 35.6 °F 100% 29.85 in 0.5 mi NNE 5.8 mph - 0.03 in Fog Fog
4:40 AM 35.6 °F 30.7 °F 35.6 °F 100% 29.85 in 0.8 mi NNE 5.8 mph - 0.03 in   Mist
4:50 AM 35.6 °F 30.7 °F 35.6 °F 100% 29.84 in 1.0 mi North 5.8 mph - 0.03 in   Mist
4:54 AM 36.0 °F 30.3 °F 36.0 °F 100% 29.88 in 1.0 mi North 6.9 mph - 0.03 in   Mist
5:11 AM 35.6 °F 30.7 °F 35.6 °F 100% 29.85 in 3.0 mi North 5.8 mph - N/A   Overcast
5:18 AM 37.4 °F 32.8 °F 35.6 °F 93% 29.85 in 6.0 mi North 5.8 mph - N/A   Overcast
6:21 AM 37.4 °F - 35.6 °F 93% 29.85 in 2.0 mi Calm Calm - 0.00 in Rain Light Rain
6:31 AM 37.4 °F 34.9 °F 35.6 °F 93% 29.86 in 5.0 mi NNE 3.5 mph - 0.00 in   Overcast
6:54 AM 37.0 °F 34.5 °F 36.0 °F 96% 29.89 in 3.0 mi North 3.5 mph - 0.00 in   Overcast
7:01 AM 37.4 °F 33.8 °F 35.6 °F 93% 29.86 in 1.8 mi North 4.6 mph - N/A   Overcast
7:19 AM 37.4 °F 34.9 °F 35.6 °F 93% 29.85 in 3.0 mi NNE 3.5 mph - N/A   Overcast
7:54 AM 37.0 °F 34.5 °F 36.0 °F 96% 29.89 in 4.0 mi NNE 3.5 mph - N/A   Overcast
8:04 AM 37.4 °F 34.9 °F 37.4 °F 100% 29.86 in 1.8 mi North 3.5 mph - N/A   Overcast
8:12 AM 37.4 °F - 37.4 °F 100% 29.86 in 3.0 mi Calm Calm - N/A   Overcast
8:54 AM 37.9 °F - 37.0 °F 97% 29.90 in 5.0 mi Calm Calm - 0.00 in   Overcast
9:05 AM 37.4 °F - 37.4 °F 100% 29.86 in 3.0 mi Calm Calm - N/A   Overcast
9:54 AM 39.9 °F - 39.0 °F 97% 29.90 in 5.0 mi Calm Calm - N/A   Overcast
10:33 AM 41.0 °F - 39.2 °F 93% 29.86 in 1.5 mi Calm Calm - N/A   Overcast
10:44 AM 42.8 °F - 41.0 °F 93% 29.86 in 3.0 mi Calm Calm - N/A   Overcast
10:52 AM 42.8 °F - 41.0 °F 93% 29.85 in 5.0 mi Calm Calm - N/A   Overcast
10:54 AM 43.0 °F - 41.0 °F 93% 29.88 in 5.0 mi Calm Calm - N/A   Overcast
11:45 AM 46.4 °F 43.5 °F 44.6 °F 93% 29.84 in 6.0 mi South 5.8 mph - N/A   Overcast
11:54 AM 46.9 °F - 45.0 °F 93% 29.86 in 6.0 mi SSW 3.5 mph - N/A   Overcast
12:19 PM 48.2 °F - 44.6 °F 87% 29.83 in 9.0 mi SSW 5.8 mph - N/A   Overcast
12:54 PM 50.0 °F - 46.0 °F 86% 29.85 in 10.0 mi SSW 8.1 mph - N/A   Overcast
1:54 PM 51.1 °F - 46.9 °F 86% 29.85 in 10.0 mi SSW 4.6 mph - N/A   Overcast
2:54 PM 52.0 °F - 48.0 °F 86% 29.86 in 10.0 mi SSW 6.9 mph - N/A   Overcast
3:54 PM 52.0 °F - 48.9 °F 89% 29.87 in 10.0 mi SSW 5.8 mph - 0.00 in   Overcast
4:54 PM 52.0 °F - 48.0 °F 86% 29.90 in 10.0 mi WSW 6.9 mph - 0.00 in   Overcast
5:08 PM 51.8 °F - 48.2 °F 88% 29.88 in 10.0 mi SW 4.6 mph - N/A   Overcast
5:54 PM 51.1 °F - 48.0 °F 89% 29.93 in 6.0 mi WNW 4.6 mph - 0.01 in Rain Light Rain
6:54 PM 51.1 °F - 45.0 °F 80% 29.96 in 10.0 mi WNW 6.9 mph - 0.00 in   Overcast
7:28 PM 50.0 °F - 44.6 °F 82% 29.95 in 10.0 mi NW 8.1 mph - N/A   Overcast
7:54 PM 50.0 °F - 43.0 °F 77% 29.98 in 10.0 mi West 3.5 mph - N/A   Overcast
8:41 PM 48.2 °F - 42.8 °F 82% 29.98 in 10.0 mi WNW 8.1 mph - N/A   Overcast
8:50 PM 48.2 °F - 42.8 °F 82% 29.99 in 10.0 mi WNW 6.9 mph - N/A   Overcast
8:54 PM 48.0 °F - 42.1 °F 80% 30.01 in 10.0 mi WNW 6.9 mph - N/A   Overcast
9:54 PM 46.9 °F - 41.0 °F 80% 30.03 in 10.0 mi WNW 9.2 mph - N/A   Partly Cloudy
10:54 PM 44.1 °F 40.8 °F 39.9 °F 85% 30.06 in 10.0 mi NW 5.8 mph - N/A   Partly Cloudy
11:54 PM 43.0 °F 40.3 °F 37.0 °F 80% 30.08 in 10.0 mi NW 4.6 mph - N/A   Partly Cloudy